Location: ??
(35.3149°N, 139.6204°E)
Time: 10:26:34
(UTC+00:00)

NOSS 3-1 (C) - Pass Details

Date: 03 August 2024
Orbit: 651 x 1554 km, 63.4° (Epoch: 18 August)

Event Time Altitude Azimuth Distance (km) Brightness Sun altitude
Rises 17:29:26 0° 326° (NW) 4,023 6.9 -25.0°
Reaches altitude 10° 17:31:58 10° 325° (NW) 3,175 6.3 -24.6°
Maximum altitude 17:39:50 74° 242° (WSW) 1,445 4.1 -23.5°
Drops below altitude 10° 17:49:04 10° 159° (SSE) 3,685 6.3 -22.1°
Sets 17:52:12 0° 158° (SSE) 4,698 6.9 -21.7°
